Location: El Manguito
(10.2358°N, 67.3634°W)
Time: 21:14:18
(UTC+00:00)

Aurora 2 Rocket - Pass Details

Date: 09 December 2024
Orbit: 386 x 1590 km, 25.0° (Epoch: 12 January)

Event Time Altitude Azimuth Distance (km) Brightness Sun altitude
Rises 22:44:56 0° 218° (SW) 3,981 7.9 -9.1°
Reaches altitude 10° 22:47:56 10° 208° (SSW) 3,199 7.0 -9.8°
Maximum altitude 22:55:06 31° 149° (SSE) 2,307 5.4 -11.5°
Enters shadow 23:02:52 12° 94° (E) 3,618 5.9 -13.2°
